2015-04-08 00:03:41 r, 15.63m,0000000049Hz,0000009318c,0000000.020s, 018.0C,00002195
2015-04-08 00:13:41 r, 15.48m,0000000057Hz,0000008075c,0000000.018s, 018.0C,00002195
2015-04-08 00:23:41 r, 15.33m,0000000065Hz,0000007099c,0000000.015s, 018.0C,00002195
2015-04-08 00:33:41 r, 15.37m,0000000064Hz,0000007331c,0000000.016s, 018.0C,00002195
2015-04-08 00:43:41 r, 15.34m,0000000065Hz,0000007112c,0000000.015s, 017.7C,00002195
2015-04-08 00:53:41 r, 15.28m,0000000068Hz,0000006756c,0000000.015s, 017.7C,00002195
2015-04-08 01:03:41 r, 15.19m,0000000074Hz,0000006181c,0000000.013s, 017.7C,00002195
2015-04-08 01:13:41 r, 15.17m,0000000075Hz,0000006070c,0000000.013s, 017.7C,00002195
2015-04-08 01:23:41 r, 15.18m,0000000074Hz,0000006162c,0000000.013s, 017.7C,00002195
2015-04-08 01:33:41 r, 15.16m,0000000075Hz,0000006042c,0000000.013s, 017.4C,00002195
2015-04-08 01:43:41 r, 15.19m,0000000075Hz,0000006201c,0000000.013s, 017.4C,00002195
2015-04-08 01:53:41 r, 15.16m,0000000076Hz,0000006028c,0000000.013s, 017.4C,00002195
2015-04-08 02:03:41 r, 15.15m,0000000078Hz,0000005961c,0000000.013s, 017.4C,00002195
2015-04-08 02:13:41 r, 15.15m,0000000077Hz,0000006012c,0000000.013s, 017.4C,00002195
2015-04-08 02:23:41 r, 15.07m,0000000082Hz,0000005592c,0000000.012s, 017.4C,00002195
2015-04-08 02:33:41 r, 15.14m,0000000078Hz,0000005949c,0000000.013s, 017.4C,00002195
2015-04-08 02:43:41 r, 15.23m,0000000072Hz,0000006408c,0000000.014s, 017.4C,00002195
2015-04-08 02:53:41 r, 15.28m,0000000068Hz,0000006771c,0000000.015s, 017.4C,00002195
2015-04-08 03:03:41 r, 15.33m,0000000065Hz,0000007048c,0000000.015s, 017.4C,00002195
2015-04-08 03:13:41 r, 15.25m,0000000070Hz,0000006577c,0000000.014s, 017.4C,00002195
2015-04-08 03:23:41 r, 15.27m,0000000069Hz,0000006668c,0000000.014s, 017.4C,00002195
2015-04-08 03:33:41 r, 15.22m,0000000071Hz,0000006399c,0000000.014s, 017.4C,00002195
2015-04-08 03:43:41 r, 15.11m,0000000080Hz,0000005765c,0000000.013s, 017.4C,00002195
2015-04-08 03:53:41 r, 15.15m,0000000076Hz,0000005987c,0000000.013s, 017.4C,00002195
2015-04-08 04:03:41 r, 15.14m,0000000077Hz,0000005922c,0000000.013s, 017.7C,00002195
2015-04-08 04:13:41 r, 15.09m,0000000082Hz,0000005633c,0000000.012s, 017.7C,00002195
2015-04-08 04:23:41 r, 15.05m,0000000084Hz,0000005494c,0000000.012s, 017.7C,00002195
2015-04-08 04:33:41 r, 14.97m,0000000090Hz,0000005065c,0000000.011s, 017.7C,00002195
2015-04-08 04:43:41 r, 14.97m,0000000090Hz,0000005102c,0000000.011s, 017.7C,00002195
2015-04-08 04:53:41 r, 15.00m,0000000088Hz,0000005193c,0000000.011s, 017.7C,00002195
2015-04-08 05:03:41 r, 15.02m,0000000088Hz,0000005280c,0000000.011s, 017.7C,00002195
2015-04-08 05:13:41 r, 14.96m,0000000090Hz,0000005051c,0000000.011s, 017.7C,00002195
2015-04-08 05:23:41 r, 14.94m,0000000093Hz,0000004950c,0000000.011s, 017.4C,00002195
2015-04-08 05:33:41 r, 14.85m,0000000100Hz,0000004531c,0000000.010s, 017.7C,00002195
2015-04-08 05:43:41 r, 14.89m,0000000099Hz,0000004711c,0000000.010s, 017.7C,00002195
2015-04-08 05:53:41 r, 15.05m,0000000085Hz,0000005445c,0000000.012s, 017.7C,00002195
2015-04-08 06:03:41 r, 14.78m,0000000107Hz,0000004270c,0000000.009s, 017.7C,00002195
2015-04-08 06:13:41 r, 14.14m,0000000196Hz,0000000000c,0000000.000s, 017.7C,00002195
2015-04-08 06:23:41 r, 12.53m,0000000868Hz,0000000000c,0000000.000s, 017.7C,00002195
2015-04-08 06:33:41 r, 10.56m,0000005319Hz,0000000000c,0000000.000s, 017.7C,00002195
2015-04-08 06:43:41 r, 08.83m,0000026020Hz,0000000000c,0000000.000s, 017.7C,00002195
2015-04-08 06:53:41 r, 07.68m,0000075466Hz,0000000000c,0000000.000s, 018.0C,00002195
2015-04-08 07:03:41 r, 06.86m,0000161398Hz,0000000000c,0000000.000s, 018.3C,00002195
2015-04-08 07:13:41 r, 06.10m,0000325498Hz,0000000000c,0000000.000s, 018.3C,00002195
2015-04-08 07:23:41 r, 00.00m,0000408488Hz,0000000000c,0000000.000s, 018.3C,00002195
2015-04-08 07:33:41 r, 00.00m,0000562866Hz,0000000000c,0000000.000s, 018.3C,00002195
2015-04-08 07:43:41 r, 00.00m,0000562977Hz,0000000000c,0000000.000s, 018.3C,00002195
2015-04-08 07:53:41 r, 00.00m,0000562946Hz,0000000000c,0000000.000s, 018.6C,00002195
2015-04-08 08:03:41 r, 00.00m,0000562914Hz,0000000000c,0000000.000s, 018.6C,00002195
2015-04-08 08:13:41 r, 00.00m,0000562895Hz,0000000000c,0000000.000s, 018.6C,00002195
2015-04-08 08:23:41 r, 00.00m,0000563014Hz,0000000000c,0000000.000s, 018.6C,00002195
2015-04-08 08:33:41 r, 00.00m,0000563089Hz,0000000000c,0000000.000s, 019.0C,00002195
2015-04-08 08:43:41 r, 00.00m,0000563111Hz,0000000000c,0000000.000s, 019.3C,00002195
2015-04-08 08:53:41 r, 00.00m,0000563176Hz,0000000000c,0000000.000s, 019.6C,00002195
2015-04-08 09:03:41 r, 00.00m,0000563161Hz,0000000000c,0000000.000s, 019.9C,00002195
2015-04-08 09:13:41 r, 00.00m,0000563245Hz,0000000000c,0000000.000s, 020.6C,00002195
2015-04-08 09:23:41 r, 00.00m,0000563444Hz,0000000000c,0000000.000s, 021.2C,00002195
2015-04-08 09:33:41 r, 00.00m,0000563460Hz,0000000000c,0000000.000s, 021.9C,00002195
2015-04-08 09:43:41 r, 00.00m,0000563349Hz,0000000000c,0000000.000s, 021.9C,00002195
2015-04-08 09:53:41 r, 00.00m,0000563495Hz,0000000000c,0000000.000s, 022.2C,00002195
2015-04-08 10:03:41 r, 00.00m,0000563657Hz,0000000000c,0000000.000s, 023.2C,00002195
2015-04-08 10:13:41 r, 00.00m,0000563698Hz,0000000000c,0000000.000s, 023.8C,00002195
2015-04-08 10:23:41 r, 00.00m,0000563801Hz,0000000000c,0000000.000s, 024.4C,00002195
2015-04-08 10:33:41 r, 00.00m,0000563918Hz,0000000000c,0000000.000s, 025.7C,00002195
2015-04-08 10:43:41 r, 00.00m,0000564181Hz,0000000000c,0000000.000s, 027.0C,00002195
2015-04-08 10:53:41 r, 00.00m,0000564332Hz,0000000000c,0000000.000s, 027.7C,00002195
2015-04-08 11:03:41 r, 00.00m,0000564390Hz,0000000000c,0000000.000s, 029.3C,00002195
2015-04-08 11:13:41 r, 00.00m,0000564588Hz,0000000000c,0000000.000s, 030.6C,00002195
2015-04-08 11:23:41 r, 00.00m,0000564769Hz,0000000000c,0000000.000s, 032.5C,00002195
2015-04-08 11:33:41 r, 00.00m,0000564642Hz,0000000000c,0000000.000s, 032.5C,00002195
2015-04-08 11:43:41 r, 00.00m,0000564677Hz,0000000000c,0000000.000s, 032.5C,00002195
2015-04-08 11:53:41 r, 00.00m,0000564826Hz,0000000000c,0000000.000s, 033.5C,00002195
2015-04-08 12:03:41 r, 00.00m,0000564673Hz,0000000000c,0000000.000s, 032.5C,00002195
2015-04-08 12:13:41 r, 00.00m,0000564749Hz,0000000000c,0000000.000s, 033.1C,00002195
2015-04-08 12:23:41 r, 00.00m,0000564695Hz,0000000000c,0000000.000s, 033.1C,00002195
2015-04-08 12:33:41 r, 00.00m,0000564687Hz,0000000000c,0000000.000s, 032.8C,00002195
2015-04-08 12:43:41 r, 00.00m,0000564651Hz,0000000000c,0000000.000s, 032.8C,00002195
2015-04-08 12:53:41 r, 00.00m,0000564772Hz,0000000000c,0000000.000s, 033.8C,00002195
2015-04-08 13:03:41 r, 00.00m,0000565040Hz,0000000000c,0000000.000s, 035.4C,00002195
2015-04-08 13:13:41 r, 00.00m,0000565184Hz,0000000000c,0000000.000s, 037.0C,00002195
2015-04-08 13:23:41 r, 00.00m,0000565122Hz,0000000000c,0000000.000s, 036.4C,00002195
2015-04-08 13:33:41 r, 00.00m,0000565184Hz,0000000000c,0000000.000s, 037.3C,00002195
2015-04-08 13:43:41 r, 00.00m,0000565041Hz,0000000000c,0000000.000s, 036.7C,00002195
2015-04-08 13:53:41 r, 00.00m,0000565096Hz,0000000000c,0000000.000s, 037.3C,00002195
2015-04-08 14:03:41 r, 00.00m,0000565270Hz,0000000000c,0000000.000s, 039.0C,00002195
2015-04-08 14:13:41 r, 00.00m,0000565406Hz,0000000000c,0000000.000s, 040.2C,00002195
2015-04-08 14:23:41 r, 00.00m,0000565482Hz,0000000000c,0000000.000s, 041.2C,00002195
2015-04-08 14:33:41 r, 00.00m,0000565288Hz,0000000000c,0000000.000s, 040.6C,00002195
2015-04-08 14:43:41 r, 00.00m,0000565106Hz,0000000000c,0000000.000s, 038.3C,00002195
2015-04-08 14:53:41 r, 00.00m,0000565058Hz,0000000000c,0000000.000s, 038.0C,00002195
2015-04-08 15:03:41 r, 00.00m,0000564937Hz,0000000000c,0000000.000s, 036.4C,00002195
2015-04-08 15:13:41 r, 00.00m,0000565166Hz,0000000000c,0000000.000s, 037.7C,00002195
2015-04-08 15:23:41 r, 00.00m,0000565358Hz,0000000000c,0000000.000s, 040.9C,00002195
2015-04-08 15:33:41 r, 00.00m,0000564963Hz,0000000000c,0000000.000s, 038.0C,00002195
2015-04-08 15:43:41 r, 00.00m,0000564751Hz,0000000000c,0000000.000s, 036.0C,00002195
2015-04-08 15:53:41 r, 00.00m,0000564661Hz,0000000000c,0000000.000s, 034.4C,00002195
2015-04-08 16:03:41 r, 00.00m,0000564644Hz,0000000000c,0000000.000s, 034.4C,00002195
2015-04-08 16:13:41 r, 00.00m,0000564823Hz,0000000000c,0000000.000s, 035.7C,00002195
2015-04-08 16:23:41 r, 00.00m,0000564643Hz,0000000000c,0000000.000s, 035.4C,00002195
2015-04-08 16:33:41 r, 00.00m,0000564726Hz,0000000000c,0000000.000s, 034.8C,00002195
2015-04-08 16:43:41 r, 00.00m,0000564799Hz,0000000000c,0000000.000s, 035.4C,00002195
2015-04-08 16:53:41 r, 00.00m,0000564710Hz,0000000000c,0000000.000s, 035.1C,00002195
2015-04-08 17:03:41 r, 00.00m,0000564755Hz,0000000000c,0000000.000s, 035.4C,00002195
2015-04-08 17:13:41 r, 00.00m,0000564808Hz,0000000000c,0000000.000s, 036.0C,00002195
2015-04-08 17:23:41 r, 00.00m,0000564737Hz,0000000000c,0000000.000s, 036.0C,00002195
2015-04-08 17:33:41 r, 00.00m,0000564777Hz,0000000000c,0000000.000s, 036.0C,00002195
2015-04-08 17:43:41 r, 00.00m,0000564605Hz,0000000000c,0000000.000s, 034.4C,00002195
2015-04-08 17:53:41 r, 00.00m,0000564466Hz,0000000000c,0000000.000s, 033.1C,00002195
2015-04-08 18:03:41 r, 00.00m,0000564369Hz,0000000000c,0000000.000s, 032.2C,00002195
2015-04-08 18:13:41 r, 00.00m,0000564228Hz,0000000000c,0000000.000s, 031.5C,00002195
2015-04-08 18:23:41 r, 00.00m,0000564081Hz,0000000000c,0000000.000s, 030.9C,00002195
2015-04-08 18:33:41 r, 00.00m,0000564124Hz,0000000000c,0000000.000s, 029.9C,00002195
2015-04-08 18:43:41 r, 00.00m,0000564037Hz,0000000000c,0000000.000s, 029.0C,00002195
2015-04-08 18:53:41 r, 00.00m,0000563995Hz,0000000000c,0000000.000s, 028.3C,00002195
2015-04-08 19:03:41 r, 00.00m,0000563845Hz,0000000000c,0000000.000s, 027.7C,00002195
2015-04-08 19:13:41 r, 00.00m,0000563830Hz,0000000000c,0000000.000s, 027.0C,00002195
2015-04-08 19:23:41 r, 00.00m,0000563765Hz,0000000000c,0000000.000s, 026.4C,00002195
2015-04-08 19:33:41 r, 00.00m,0000563728Hz,0000000000c,0000000.000s, 026.1C,00002195
2015-04-08 19:43:41 r, 00.00m,0000510160Hz,0000000000c,0000000.000s, 025.7C,00002195
2015-04-08 19:53:41 r, 06.18m,0000300199Hz,0000000000c,0000000.000s, 025.4C,00002195
2015-04-08 20:03:41 r, 07.05m,0000134751Hz,0000000000c,0000000.000s, 024.8C,00002195
2015-04-08 20:13:41 r, 07.90m,0000061907Hz,0000000000c,0000000.000s, 024.1C,00002195
2015-04-08 20:23:41 r, 09.25m,0000017824Hz,0000000000c,0000000.000s, 023.8C,00002195
2015-04-08 20:33:41 r, 11.05m,0000003378Hz,0000000000c,0000000.000s, 023.5C,00002195
2015-04-08 20:43:41 r, 12.99m,0000000564Hz,0000000000c,0000000.000s, 023.2C,00002195
2015-04-08 20:53:41 r, 14.93m,0000000094Hz,0000004920c,0000000.011s, 022.8C,00002195
2015-04-08 21:03:41 r, 16.41m,0000000024Hz,0000019109c,0000000.041s, 022.8C,00002195
2015-04-08 21:13:41 r, 17.02m,0000000014Hz,0000033677c,0000000.073s, 022.5C,00002195
2015-04-08 21:23:41 r, 17.29m,0000000010Hz,0000043157c,0000000.094s, 022.2C,00002195
2015-04-08 21:33:41 r, 17.43m,0000000009Hz,0000048669c,0000000.106s, 022.2C,00002195
2015-04-08 21:43:41 r, 17.33m,0000000010Hz,0000044214c,0000000.096s, 021.9C,00002195
2015-04-08 21:53:41 r, 17.33m,0000000011Hz,0000044260c,0000000.096s, 021.9C,00002195
2015-04-08 22:03:41 r, 17.37m,0000000010Hz,0000046043c,0000000.100s, 021.5C,00002195
2015-04-08 22:13:41 r, 17.59m,0000000008Hz,0000056269c,0000000.122s, 021.5C,00002195
2015-04-08 22:23:41 r, 17.70m,0000000008Hz,0000062354c,0000000.135s, 021.2C,00002195
2015-04-08 22:33:41 r, 17.69m,0000000008Hz,0000061479c,0000000.133s, 021.2C,00002195
2015-04-08 22:43:41 r, 17.79m,0000000007Hz,0000067868c,0000000.147s, 021.2C,00002195
2015-04-08 22:53:41 r, 17.74m,0000000007Hz,0000065273c,0000000.142s, 020.9C,00002195
2015-04-08 23:03:41 r, 17.83m,0000000006Hz,0000071113c,0000000.154s, 020.9C,00002195
2015-04-08 23:13:41 r, 17.54m,0000000008Hz,0000053771c,0000000.117s, 020.9C,00002195
2015-04-08 23:23:41 r, 17.51m,0000000009Hz,0000052768c,0000000.115s, 020.9C,00002195
2015-04-08 23:33:41 r, 17.49m,0000000009Hz,0000051911c,0000000.113s, 020.9C,00002195
2015-04-08 23:43:41 r, 17.51m,0000000009Hz,0000052675c,0000000.114s, 020.9C,00002195
2015-04-08 23:53:41 r, 17.25m,0000000011Hz,0000041393c,0000000.090s, 020.9C,00002195
